Latest Coastal Weather Observations for Bairnsdale

IDV60701

Issued at 12:01 am EST Wednesday 1 June 2016 (issued every 10 minutes, with the page automatically refreshed every 10 minutes)

About coastal observations | Map of coastal stations | Coastal observations for VIC | Marine services | Other Formats
Station Details ID: 085279 Name: BAIRNSDALE AIRPORT Lat: -37.88 Lon: 147.57 Height: 49.4 m
Data from the previous 72 hours. | See also: Recent months at Bairnsdale
Date/Time
EST
Temp

°C
Wind Pressure Rain
since 9am
mm
Weather Cloud Vis
km
Sea
Height
m
Swell
Dir
 
Speed
knots
Gust
knots
hPa Trend Height
m
Period
s
Dir
01/12:00am 4.1 NW 5 6 1029.8 - 0.0 - - 0.4 - - - -
 
Date/Time
EST
Temp

°C
Wind Pressure Rain
since 9am
mm
Weather Cloud Vis
km
Sea
Height
m
Swell
Dir
 
Speed
knots
Gust
knots
hPa Trend Height
m
Period
s
Dir
31/11:32pm 4.2 NNW 5 24 1029.9 - 0.0 - - 5 - - - -
31/11:30pm 4.4 NNW 5 24 1030.0 - 0.0 - - 7 - - - -
31/11:00pm 8.5 ENE 7 9 1029.9 - 0.0 - - 10 - - - -
31/10:30pm 7.8 NNE 5 5 1030.1 - 0.0 - - 10 - - - -
31/10:00pm 8.1 NE 5 5 1030.3 - 0.0 - - 10 - - - -
31/09:30pm 8.9 ENE 6 8 1030.1 - 0.0 - - 10 - - - -
31/09:00pm 8.4 E 6 7 1030.0 - 0.0 - - 10 - - - -
31/08:30pm 8.9 ENE 5 6 1030.1 - 0.0 - - 10 - - - -
31/08:00pm 9.5 E 5 6 1030.0 - 0.0 - - 10 - - - -
31/07:30pm 9.3 ENE 5 7 1029.9 - 0.0 - - 10 - - - -
31/07:00pm 8.5 ENE 4 4 1029.8 - 0.0 - - 10 - - - -
31/06:30pm 8.3 ENE 1 4 1029.7 - 0.0 - - 10 - - - -
31/06:00pm 10.7 E 7 8 1029.4 - 0.0 - - 10 - - - -
31/05:30pm 11.1 E 8 10 1029.2 - 0.0 - - 10 - - - -
31/05:00pm 11.9 E 9 12 1029.0 - 0.0 - - 10 - - - -
31/04:30pm 12.7 E 11 15 1028.8 - 0.0 - - 10 - - - -
31/04:00pm 13.5 E 10 17 1028.9 - 0.0 - - 10 - - - -
31/03:30pm 14.3 E 13 18 1028.8 - 0.0 - - 10 - - - -
31/03:00pm 14.5 ESE 12 17 1028.8 - 0.0 - - 10 - - - -
31/02:30pm 14.7 ESE 11 15 1028.9 - 0.0 - - 10 - - - -
31/02:00pm 15.2 E 11 15 1029.1 - 0.0 - - 10 - - - -
31/01:30pm 15.3 E 11 14 1029.3 - 0.0 - - 10 - - - -
31/01:00pm 14.5 E 9 12 1029.6 - 0.0 - - 10 - - - -
31/12:30pm 13.6 ENE 9 12 1030.0 - 0.0 - - 10 - - - -
31/12:00pm 13.3 ENE 6 9 1030.3 - 0.0 - Mostly clear 10 - - - -
31/11:30am 11.4 E 3 4 1031.0 - 0.0 - Partly cloudy 10 - - - -
31/11:00am 10.8 E 3 5 1031.4 - 0.0 - - 10 - - - -
31/10:30am 9.4 SSE 2 4 1031.8 - 0.0 - - 10 - - - -
31/10:00am 9.7 NNW 1 3 1031.7 - 0.0 - - 10 - - - -
31/09:30am 7.3 CALM 0 0 1031.8 - 0.0 - - 10 - - - -
31/09:00am 5.9 CALM 0 0 1031.9 - 0.0 - - 10 - - - -
31/08:30am 4.8 CALM 0 0 1031.7 - 0.0 - - 10 - - - -
31/08:00am 2.9 CALM 0 0 1031.3 - 0.0 - - 10 - - - -
31/07:36am 2.6 WNW 1 3 1031.0 - 0.0 - - 10 - - - -
31/07:30am 2.4 WNW 3 4 1030.9 - 0.0 - - 9 - - - -
31/07:00am 1.9 NW 3 5 1030.6 - 0.0 - - 4 - - - -
31/06:59am 1.9 NW 3 5 1030.6 - 0.0 - - 5 - - - -
31/06:30am 2.7 NW 4 4 1030.2 - 0.0 - - 10 - - - -
31/06:00am 3.3 N 4 5 1030.2 - 0.0 - Mostly clear 10 - - - -
31/05:30am 4.1 N 4 5 1030.1 - 0.0 - Partly cloudy 10 - - - -
31/05:00am 3.7 NW 3 4 1029.9 - 0.0 - Partly cloudy 10 - - - -
31/04:30am 4.0 NW 4 4 1029.9 - 0.0 - Partly cloudy 10 - - - -
31/04:00am 4.5 NW 3 4 1029.8 - 0.0 - Partly cloudy 10 - - - -
31/03:39am 4.4 NW 4 5 1029.9 - 0.0 - Partly cloudy 10 - - - -
31/03:30am 4.3 NNW 3 4 1029.9 - 0.0 - Partly cloudy 10 - - - -
31/03:25am 4.2 NNW 3 4 1029.9 - 0.0 - Partly cloudy 10 - - - -
31/03:00am 3.7 NW 4 5 1029.7 - 0.0 - Mostly clear 10 - - - -
31/02:30am 3.7 NNW 5 6 1029.7 - 0.0 - - 10 - - - -
31/02:10am 3.5 NNE 4 5 1029.7 - 0.0 - Partly cloudy 10 - - - -
31/02:00am 3.9 N 4 5 1029.6 - 0.0 - Partly cloudy 10 - - - -
31/01:30am 5.2 NNW 5 6 1029.7 - 0.0 - Partly cloudy 10 - - - -
31/01:23am 5.0 NW 5 6 1029.7 - 0.0 - Partly cloudy 10 - - - -
31/01:08am 4.6 NW 7 9 1029.6 - 0.0 - Partly cloudy 10 - - - -
31/01:00am 4.7 NW 6 8 1029.6 - 0.0 - Partly cloudy 10 - - - -
31/12:50am 4.7 NW 6 7 1029.7 - 0.0 - Partly cloudy 10 - - - -
31/12:30am 4.5 NW 6 7 1029.7 - 0.0 - - 10 - - - -
31/12:00am 4.7 NW 5 7 1029.8 - 0.0 - - 10 - - - -
 
Date/Time
EST
Temp

°C
Wind Pressure Rain
since 9am
mm
Weather Cloud Vis
km
Sea
Height
m
Swell
Dir
 
Speed
knots
Gust
knots
hPa Trend Height
m
Period
s
Dir
30/11:30pm 4.8 NW 5 6 1029.7 - 0.0 - - 10 - - - -
30/11:00pm 4.9 NW 5 7 1029.6 - 0.0 - - 10 - - - -
30/10:30pm 5.4 NNW 4 5 1029.4 - 0.0 - - 10 - - - -
30/10:00pm 6.4 NW 3 4 1029.3 - 0.0 - - 10 - - - -
30/09:30pm 6.5 NW 4 5 1029.2 - 0.0 - - 10 - - - -
30/09:00pm 6.5 NNW 4 5 1029.0 - 0.0 - - 10 - - - -
30/08:30pm 6.8 N 4 5 1028.9 - 0.0 - - 10 - - - -
30/08:00pm 8.1 NE 4 5 1028.8 - 0.0 - - 10 - - - -
30/07:30pm 8.0 CALM 0 0 1028.6 - 0.0 - Partly cloudy 10 - - - -
30/07:00pm 9.4 CALM 0 3 1028.5 - 0.0 - Cloudy 10 - - - -
30/06:30pm 8.6 S 4 4 1028.2 - 0.0 - Cloudy 10 - - - -
30/06:00pm 9.8 SSE 3 5 1027.9 - 0.0 - Mostly cloudy 10 - - - -
30/05:30pm 11.5 SSE 6 7 1027.4 - 0.0 - Cloudy 10 - - - -
30/05:00pm 11.7 SE 6 7 1027.3 - 0.0 - Partly cloudy 10 - - - -
30/04:30pm 12.7 SE 6 7 1027.0 - 0.0 - Cloudy 10 - - - -
30/04:00pm 13.6 SE 3 5 1026.7 - 0.0 - Cloudy 10 - - - -
30/03:30pm 13.7 ESE 2 4 1026.6 - 0.0 - Partly cloudy 10 - - - -
30/03:00pm 13.9 SE 3 5 1026.6 - 0.0 - Mostly clear 10 - - - -
30/02:30pm 14.5 E 4 5 1026.5 - 0.0 - Partly cloudy 10 - - - -
30/02:00pm 14.5 S 3 5 1026.3 - 0.0 - - 10 - - - -
30/01:30pm 14.2 SSW 4 7 1026.5 - 0.0 - Partly cloudy 10 - - - -
30/01:00pm 14.1 SSW 4 6 1026.7 - 0.0 - Partly cloudy 10 - - - -
30/12:30pm 13.5 WNW 4 7 1026.7 - 0.0 - Cloudy 10 - - - -
30/12:00pm 13.6 W 5 7 1026.9 - 0.0 - - 10 - - - -
30/11:30am 13.4 WSW 5 8 1027.3 - 0.0 - - 10 - - - -
30/11:00am 12.4 NW 6 8 1027.5 - 0.0 - - 10 - - - -
30/10:30am 11.5 NW 9 11 1027.6 - 0.0 - Cloudy 10 - - - -
30/10:00am 9.4 NW 8 10 1027.5 - 0.0 - Partly cloudy 10 - - - -
30/09:30am 9.1 WNW 9 11 1027.5 - 0.0 - Cloudy 10 - - - -
30/09:00am 8.5 WNW 10 12 1027.1 - 0.0 - Mostly clear 10 - - - -
30/08:30am 7.4 NW 8 11 1026.8 - 0.0 - Partly cloudy 10 - - - -
30/08:00am 6.3 NW 10 12 1026.4 - 0.0 - Cloudy 10 - - - -
30/07:30am 6.0 WNW 8 11 1026.2 - 0.0 - Cloudy 10 - - - -
30/07:00am 5.8 NW 9 11 1025.7 - 0.0 - Cloudy 10 - - - -
30/06:30am 5.9 NW 8 11 1025.5 - 0.0 - Cloudy 10 - - - -
30/06:00am 5.6 WNW 9 11 1025.0 - 0.0 - Cloudy 10 - - - -
30/05:30am 5.7 WNW 9 10 1024.7 - 0.0 - Cloudy 10 - - - -
30/05:00am 5.8 NW 9 11 1024.6 - 0.0 - Cloudy 10 - - - -
30/04:30am 5.6 NW 8 10 1024.3 - 0.0 - Cloudy 10 - - - -
30/04:00am 5.1 NW 9 11 1024.1 - 0.0 - Partly cloudy 10 - - - -
30/03:30am 5.4 NW 10 12 1023.8 - 0.0 - Cloudy 10 - - - -
30/03:00am 4.5 NW 8 9 1023.8 - 0.0 - - 10 - - - -
30/02:30am 4.7 WNW 8 10 1023.7 - 0.0 - - 10 - - - -
30/02:00am 5.0 WNW 8 9 1023.7 - 0.0 - - 10 - - - -
30/01:30am 5.2 WNW 8 10 1023.4 - 0.0 - - 10 - - - -
30/01:00am 5.2 WNW 8 10 1023.2 - 0.0 - - 10 - - - -
30/12:30am 5.4 NW 8 10 1023.0 - 0.0 - - 10 - - - -
30/12:00am 5.1 NW 8 9 1022.9 - 0.0 - - 10 - - - -
 
Date/Time
EST
Temp

°C
Wind Pressure Rain
since 9am
mm
Weather Cloud Vis
km
Sea
Height
m
Swell
Dir
 
Speed
knots
Gust
knots
hPa Trend Height
m
Period
s
Dir
29/11:30pm 5.4 WNW 8 10 1022.9 - 0.0 - - 10 - - - -
29/11:00pm 5.3 WNW 8 9 1022.8 - 0.0 - - 10 - - - -
29/10:30pm 7.5 WNW 8 11 1022.6 - 0.0 - - 10 - - - -
29/10:00pm 8.2 W 10 12 1022.6 - 0.0 - Partly cloudy 10 - - - -
29/09:30pm 8.2 W 8 11 1022.6 - 0.0 - Partly cloudy 10 - - - -
29/09:00pm 8.5 W 9 12 1022.3 - 0.0 - - 10 - - - -
29/08:30pm 9.3 W 11 17 1022.1 - 0.0 - - 10 - - - -
29/08:00pm 9.5 W 10 14 1021.7 - 0.0 - Partly cloudy 10 - - - -
29/07:30pm 9.8 W 11 15 1021.4 - 0.0 - Partly cloudy 10 - - - -
29/07:00pm 10.2 W 9 15 1020.9 - 0.0 - Partly cloudy 10 - - - -
29/06:30pm 10.4 W 11 16 1020.5 - 0.0 - Partly cloudy 10 - - - -
29/06:00pm 10.4 W 8 11 1020.2 - 0.0 - Partly cloudy 10 - - - -
29/05:30pm 10.7 W 9 14 1019.8 - 0.0 - Partly cloudy 10 - - - -
29/05:00pm 11.1 W 11 17 1019.3 - 0.0 - - 10 - - - -
29/04:30pm 11.9 W 11 15 1019.0 - 0.0 - - 10 - - - -
29/04:00pm 13.1 WSW 11 15 1018.8 - 0.0 - Partly cloudy 10 - - - -
29/03:30pm 13.9 WSW 16 23 1018.4 - 0.0 - Partly cloudy 10 - - - -
29/03:00pm 14.6 W 14 22 1018.1 - 0.0 - - 10 - - - -
29/02:56pm 14.5 WSW 15 25 1018.1 - 0.0 - - 10 - - - -
29/02:30pm 14.6 W 16 23 1017.9 - 0.0 - Partly cloudy 10 - - - -
29/02:00pm 14.5 W 14 22 1017.7 - 0.0 - - 10 - - - -
29/01:30pm 14.0 W 17 24 1017.6 - 0.0 - Partly cloudy 10 - - - -
29/01:00pm 13.9 WSW 15 19 1017.7 - 0.0 - Partly cloudy 10 - - - -
29/12:30pm 13.3 W 14 21 1017.8 - 0.0 - Cloudy 10 - - - -
29/12:00pm 12.4 W 13 20 1018.0 - 0.0 - Cloudy 10 - - - -
29/11:30am 11.5 WSW 18 23 1018.1 - 0.0 - Partly cloudy 10 - - - -
29/11:00am 12.7 WSW 15 22 1018.1 - 0.0 - Partly cloudy 10 - - - -
29/10:30am 12.5 W 13 20 1018.1 - 0.0 - Partly cloudy 10 - - - -
29/10:00am 11.9 W 15 19 1017.9 - 0.0 - Partly cloudy 10 - - - -
29/09:30am 11.5 W 16 22 1017.7 - 0.0 - Partly cloudy 10 - - - -
29/09:00am 11.5 W 11 16 1017.4 - 0.2 - Mostly clear 10 - - - -
29/08:30am 10.7 W 11 15 1017.0 - 0.2 - Partly cloudy 10 - - - -
29/08:00am 10.3 W 12 16 1016.9 - 0.2 - Partly cloudy 10 - - - -
29/07:30am 10.3 W 11 17 1016.5 - 0.2 - Partly cloudy 10 - - - -
29/07:00am 10.2 W 13 19 1016.2 - 0.2 - Partly cloudy 10 - - - -
29/06:30am 10.2 W 11 16 1016.0 - 0.2 - Cloudy 10 - - - -
29/06:00am 10.1 W 12 16 1015.6 - 0.2 - Cloudy 10 - - - -
29/05:30am 9.8 WNW 12 15 1015.3 - 0.2 - Partly cloudy 10 - - - -
29/05:00am 9.5 WNW 9 16 1015.1 - 0.2 - Partly cloudy 10 - - - -
29/04:30am 9.7 W 9 13 1015.0 - 0.2 - Partly cloudy 10 - - - -
29/04:00am 9.2 WNW 11 15 1014.7 - 0.2 - Partly cloudy 10 - - - -
29/03:30am 9.5 WNW 11 15 1014.6 - 0.2 - Partly cloudy 10 - - - -
29/03:00am 9.4 WNW 10 13 1014.5 - 0.2 - Cloudy 10 - - - -
29/02:30am 9.3 W 11 14 1014.4 - 0.2 - Partly cloudy 10 - - - -
29/02:00am 8.8 W 11 15 1014.2 - 0.2 - Partly cloudy 10 - - - -
29/01:30am 8.8 W 13 17 1014.1 - 0.2 - Partly cloudy 10 - - - -
29/01:00am 8.5 W 12 16 1013.9 - 0.2 - - 10 - - - -
29/12:30am 8.2 W 10 15 1013.9 - 0.2 - Partly cloudy 10 - - - -

Other Formats:

Comma delimited format used in spreadsheet applications
http://www.bom.gov.au/fwo/IDV60701/IDV60701.94912.axf

JavaScript Object Notation format (JSON) in row-major order
http://www.bom.gov.au/fwo/IDV60701/IDV60701.94912.json